TVS2741 LICC-LKPR

Flight info

Callsign TVS2741
Flight time 2h 5m
Altitude 36000
Route BUDIN DCT EVINO DCT VAPUP DCT DARZA DCT LIMRA DCT ADLET DCT APRAQ
Aircraft B738/M-SDFGHIJ1LORVWXYZ/LB1

Departure

Time 2026-05-01 11:13
Airport Catania-Fontanarossa Airport (LICC)

Arrival

Time 2026-05-01 13:18
Airport Václav Havel Airport Prague (LKPR)
Time Latitude Longitude Altitude Speed Heading
2026-05-01 10:42 37.46946 15.06526 31 ft 0 kts 19°
2026-05-01 11:04 37.46945 15.06526 4 ft 2 kts 19°
2026-05-01 11:04 37.46926 15.06518 31 ft 3 kts 19°
2026-05-01 11:05 37.46906 15.06509 31 ft 3 kts 19°
2026-05-01 11:05 37.46887 15.06501 31 ft 3 kts 19°
2026-05-01 11:05 37.46868 15.06494 31 ft 3 kts
2026-05-01 11:05 37.46853 15.06493 31 ft 2 kts 345°
2026-05-01 11:06 37.46843 15.06498 31 ft 1 kts 312°
2026-05-01 11:06 37.46836 15.06511 30 ft 2 kts 284°
2026-05-01 11:06 37.46835 15.06531 31 ft 2 kts 265°
2026-05-01 11:07 37.46833 15.06505 31 ft 1 kts 264°
2026-05-01 11:07 37.46832 15.06498 31 ft 0 kts 264°
2026-05-01 11:09 37.46830 15.06472 31 ft 7 kts 263°
2026-05-01 11:09 37.46823 15.06389 31 ft 11 kts 264°
2026-05-01 11:09 37.46815 15.06294 31 ft 11 kts 264°
2026-05-01 11:10 37.46799 15.06111 31 ft 10 kts 264°
2026-05-01 11:10 37.46795 15.06052 31 ft 10 kts 265°
2026-05-01 11:10 37.46789 15.05963 31 ft 10 kts 263°
2026-05-01 11:10 37.46780 15.05871 31 ft 11 kts 264°
2026-05-01 11:11 37.46772 15.05780 31 ft 11 kts 264°
2026-05-01 11:11 37.46764 15.05683 30 ft 11 kts 263°
2026-05-01 11:11 37.46755 15.05582 31 ft 12 kts 265°
2026-05-01 11:11 37.46720 15.05487 31 ft 12 kts 218°
2026-05-01 11:12 37.46641 15.05474 33 ft 12 kts 163°
2026-05-01 11:12 37.46593 15.05552 33 ft 12 kts 102°
2026-05-01 11:12 37.46592 15.05606 33 ft 0 kts 84°
2026-05-01 11:12 37.46592 15.05608 33 ft 2 kts 84°
2026-05-01 11:13 37.46611 15.05828 34 ft 60 kts 84°
2026-05-01 11:13 37.46679 15.06648 32 ft 125 kts 84°
2026-05-01 11:13 37.46790 15.07925 283 ft 157 kts 84°
2026-05-01 11:13 37.46879 15.09301 1152 ft 159 kts 83°
2026-05-01 11:14 37.47071 15.10736 1812 ft 175 kts 80°
2026-05-01 11:14 37.47322 15.12341 2306 ft 196 kts 79°
2026-05-01 11:14 37.47567 15.14067 3012 ft 204 kts 81°
2026-05-01 11:14 37.47818 15.15887 3397 ft 224 kts 79°
2026-05-01 11:15 37.48124 15.17937 3596 ft 250 kts 79°
2026-05-01 11:15 37.48444 15.20149 4104 ft 265 kts 79°
2026-05-01 11:15 37.48759 15.22494 4734 ft 279 kts 79°
2026-05-01 11:15 37.49099 15.24933 5613 ft 278 kts 79°
2026-05-01 11:16 37.49420 15.27200 7033 ft 254 kts 78°
2026-05-01 11:16 37.49928 15.29284 7982 ft 250 kts 56°
2026-05-01 11:16 37.51180 15.30879 8228 ft 270 kts 27°
2026-05-01 11:16 37.52899 15.31954 8724 ft 281 kts 22°
2026-05-01 11:17 37.54663 15.33062 9559 ft 282 kts 26°
2026-05-01 11:17 37.56385 15.34285 10220 ft 292 kts 25°
2026-05-01 11:17 37.58217 15.35592 10524 ft 313 kts 28°
2026-05-01 11:17 37.60110 15.37074 10806 ft 332 kts 30°
2026-05-01 11:18 37.62073 15.38692 11430 ft 339 kts 30°
2026-05-01 11:18 37.64109 15.40301 11933 ft 350 kts 28°
2026-05-01 11:18 37.66222 15.41937 12476 ft 359 kts 28°
2026-05-01 11:18 37.68367 15.43599 13198 ft 362 kts 28°
2026-05-01 11:19 37.70496 15.45212 14020 ft 362 kts 24°
2026-05-01 11:19 37.72887 15.46212 14452 ft 360 kts 360°
2026-05-01 11:19 37.75383 15.46117 15042 ft 361 kts 351°
2026-05-01 11:19 37.77910 15.45845 15670 ft 366 kts 352°
2026-05-01 11:20 37.80459 15.45650 16486 ft 364 kts 352°
2026-05-01 11:20 37.82965 15.45475 17173 ft 367 kts 352°
2026-05-01 11:20 37.85562 15.45303 17522 ft 379 kts 353°
2026-05-01 11:20 37.88230 15.45130 18093 ft 381 kts 353°
2026-05-01 11:21 37.90881 15.44954 18816 ft 381 kts 352°
2026-05-01 11:21 37.93543 15.44772 19357 ft 384 kts 352°
2026-05-01 11:21 37.96194 15.44588 19857 ft 388 kts 352°
2026-05-01 11:21 37.98905 15.44399 20362 ft 391 kts 352°
2026-05-01 11:22 38.01633 15.44209 20889 ft 393 kts 352°
2026-05-01 11:22 38.04372 15.44019 21441 ft 394 kts 352°
2026-05-01 11:22 38.07135 15.43826 21897 ft 398 kts 352°
2026-05-01 11:22 38.09880 15.43634 22304 ft 403 kts 352°
2026-05-01 11:23 38.12690 15.43439 22869 ft 404 kts 352°
2026-05-01 11:23 38.15510 15.43242 23388 ft 406 kts 352°
2026-05-01 11:23 38.18345 15.43044 23832 ft 409 kts 352°
2026-05-01 11:23 38.21204 15.42844 24238 ft 412 kts 352°
2026-05-01 11:24 38.24049 15.42646 24654 ft 414 kts 352°
2026-05-01 11:24 38.26934 15.42444 25034 ft 416 kts 352°
2026-05-01 11:24 38.32747 15.42038 25823 ft 419 kts 352°
2026-05-01 11:25 38.35672 15.41833 26189 ft 421 kts 352°
2026-05-01 11:25 38.41561 15.41419 26884 ft 426 kts 351°
2026-05-01 11:25 38.44527 15.41211 27228 ft 428 kts 351°
2026-05-01 11:26 38.47468 15.41004 27549 ft 430 kts 351°
2026-05-01 11:26 38.53469 15.40581 28199 ft 434 kts 351°
2026-05-01 11:26 38.56495 15.40368 28524 ft 436 kts 351°
2026-05-01 11:27 38.59536 15.40153 28829 ft 438 kts 351°
2026-05-01 11:27 38.62582 15.39938 29120 ft 440 kts 351°
2026-05-01 11:27 38.65655 15.39721 29416 ft 442 kts 351°
2026-05-01 11:27 38.68724 15.39504 29803 ft 441 kts 351°
2026-05-01 11:28 38.71768 15.39291 30260 ft 439 kts 351°
2026-05-01 11:28 38.74815 15.39077 30662 ft 437 kts 351°
2026-05-01 11:28 38.77805 15.38867 31029 ft 435 kts 351°
2026-05-01 11:29 38.83854 15.38438 31713 ft 433 kts 351°
2026-05-01 11:29 38.86855 15.38224 32051 ft 432 kts 351°
2026-05-01 11:29 38.92845 15.37797 32765 ft 429 kts 350°
2026-05-01 11:30 39.01678 15.37166 33690 ft 427 kts 350°
2026-05-01 11:30 39.04636 15.36955 34008 ft 425 kts 350°
2026-05-01 11:31 39.07593 15.36743 34288 ft 425 kts 350°
2026-05-01 11:31 39.10543 15.36531 34499 ft 425 kts 350°
2026-05-01 11:31 39.13496 15.36319 34699 ft 426 kts 350°
2026-05-01 11:31 39.16450 15.36107 34934 ft 425 kts 350°
2026-05-01 11:32 39.19401 15.35895 35160 ft 425 kts 350°
2026-05-01 11:32 39.22355 15.35682 35357 ft 425 kts 350°
2026-05-01 11:32 39.25307 15.35470 35559 ft 425 kts 350°
2026-05-01 11:32 39.28259 15.35258 35761 ft 425 kts 350°
2026-05-01 11:33 39.31183 15.35047 35957 ft 425 kts 350°
2026-05-01 11:33 39.34134 15.34834 36144 ft 426 kts 350°
2026-05-01 11:33 39.37105 15.34619 36153 ft 429 kts 350°
2026-05-01 11:34 39.43046 15.34190 36163 ft 426 kts 351°
2026-05-01 11:34 39.48943 15.33766 36169 ft 423 kts 351°
2026-05-01 11:35 39.54802 15.33341 36167 ft 421 kts 351°
2026-05-01 11:35 39.60640 15.32916 36170 ft 420 kts 351°
2026-05-01 11:36 39.66467 15.32491 36170 ft 420 kts 351°
2026-05-01 11:36 39.72274 15.32076 36178 ft 422 kts 351°
2026-05-01 11:37 39.78165 15.31842 36177 ft 425 kts 353°
2026-05-01 11:37 39.84092 15.31683 36180 ft 427 kts 353°
2026-05-01 11:38 39.90050 15.31510 36175 ft 429 kts 353°
2026-05-01 11:38 39.96028 15.31320 36181 ft 430 kts 353°
2026-05-01 11:39 40.01984 15.31124 36177 ft 431 kts 353°
2026-05-01 11:39 40.07986 15.30924 36186 ft 432 kts 353°
2026-05-01 11:40 40.13994 15.30724 36177 ft 432 kts 353°
2026-05-01 11:40 40.19991 15.30525 36178 ft 430 kts 353°
2026-05-01 11:41 40.25964 15.30326 36170 ft 429 kts 353°
2026-05-01 11:41 40.31930 15.30126 36185 ft 428 kts 353°
2026-05-01 11:42 40.37838 15.29928 36181 ft 427 kts 353°
2026-05-01 11:42 40.43767 15.29729 36198 ft 426 kts 353°
2026-05-01 11:43 40.49679 15.29530 36201 ft 424 kts 353°
2026-05-01 11:43 40.55575 15.29330 36203 ft 424 kts 353°
2026-05-01 11:44 40.64438 15.29029 36195 ft 425 kts 353°
2026-05-01 11:44 40.70367 15.28828 36205 ft 427 kts 353°
2026-05-01 11:45 40.76320 15.28625 36212 ft 429 kts 354°
2026-05-01 11:45 40.82260 15.28423 36216 ft 430 kts 354°
2026-05-01 11:46 40.88256 15.28219 36219 ft 431 kts 354°
2026-05-01 11:46 40.94264 15.28014 36227 ft 432 kts 354°
2026-05-01 11:47 41.00277 15.27809 36233 ft 433 kts 354°
2026-05-01 11:47 41.06301 15.27603 36230 ft 433 kts 354°
2026-05-01 11:48 41.12280 15.27399 36236 ft 432 kts 354°
2026-05-01 11:48 41.18288 15.27193 36255 ft 431 kts 354°
2026-05-01 11:49 41.24286 15.26986 36254 ft 431 kts 354°
2026-05-01 11:49 41.30281 15.26779 36267 ft 430 kts 354°
2026-05-01 11:50 41.36267 15.26572 36257 ft 430 kts 354°
2026-05-01 11:50 41.42193 15.26367 36266 ft 429 kts 355°
2026-05-01 11:51 41.48151 15.26161 36264 ft 428 kts 355°
2026-05-01 11:51 41.54098 15.25954 36268 ft 427 kts 355°
2026-05-01 11:52 41.60035 15.25747 36266 ft 427 kts 355°
2026-05-01 11:52 41.65977 15.25539 36272 ft 427 kts 355°
2026-05-01 11:53 41.71880 15.25333 36274 ft 427 kts 355°
2026-05-01 11:53 41.77828 15.25124 36281 ft 428 kts 356°
2026-05-01 11:54 41.83786 15.24915 36290 ft 429 kts 356°
2026-05-01 11:54 41.89753 15.24705 36284 ft 429 kts 356°
2026-05-01 11:55 41.95730 15.24495 36286 ft 430 kts 356°
2026-05-01 11:55 42.01669 15.24286 36310 ft 430 kts 357°
2026-05-01 11:56 42.07661 15.24074 36294 ft 431 kts 357°
2026-05-01 11:56 42.13653 15.23862 36291 ft 431 kts 357°
2026-05-01 11:57 42.19647 15.23649 36291 ft 431 kts 357°
2026-05-01 11:57 42.25635 15.23437 36285 ft 430 kts 357°
2026-05-01 11:58 42.31620 15.23223 36291 ft 430 kts 358°
2026-05-01 11:59 42.40535 15.22905 36292 ft 429 kts 358°
2026-05-01 11:59 42.46493 15.22692 36290 ft 428 kts 358°
2026-05-01 12:00 42.55414 15.22372 36291 ft 427 kts 358°
2026-05-01 12:01 42.64298 15.22052 36295 ft 425 kts 358°
2026-05-01 12:01 42.70171 15.21841 36293 ft 425 kts 358°
2026-05-01 12:02 42.76076 15.21627 36289 ft 424 kts 358°
2026-05-01 12:02 42.81980 15.21414 36290 ft 424 kts 358°
2026-05-01 12:03 42.87878 15.21200 36289 ft 424 kts 359°
2026-05-01 12:03 42.93773 15.20986 36290 ft 424 kts 359°
2026-05-01 12:04 42.99636 15.20772 36292 ft 424 kts 359°
2026-05-01 12:04 43.05538 15.20557 36288 ft 424 kts 359°
2026-05-01 12:05 43.11440 15.20173 36292 ft 425 kts 357°
2026-05-01 12:05 43.20285 15.19428 36296 ft 425 kts 357°
2026-05-01 12:06 43.26180 15.18947 36293 ft 424 kts 358°
2026-05-01 12:06 43.32075 15.18478 36294 ft 424 kts 358°
2026-05-01 12:07 43.37953 15.18015 36290 ft 423 kts 358°
2026-05-01 12:07 43.43776 15.17555 36287 ft 422 kts 358°
2026-05-01 12:08 43.49629 15.17092 36289 ft 421 kts 358°
2026-05-01 12:08 43.55460 15.16630 36288 ft 419 kts 358°
2026-05-01 12:09 43.61280 15.16168 36289 ft 418 kts 359°
2026-05-01 12:09 43.67045 15.15709 36290 ft 417 kts 359°
2026-05-01 12:10 43.75733 15.15016 36286 ft 416 kts 359°
2026-05-01 12:11 43.84408 15.14322 36293 ft 416 kts 359°
2026-05-01 12:11 43.90197 15.13858 36293 ft 417 kts 359°
2026-05-01 12:12 43.95954 15.13396 36296 ft 418 kts 359°
2026-05-01 12:12 44.01769 15.12928 36292 ft 419 kts 359°
2026-05-01 12:13 44.07605 15.12457 36291 ft 420 kts 359°
2026-05-01 12:13 44.13441 15.11985 36300 ft 420 kts 360°
2026-05-01 12:14 44.19278 15.11512 36298 ft 420 kts
2026-05-01 12:14 44.25102 15.11039 36304 ft 419 kts
2026-05-01 12:15 44.30872 15.10569 36310 ft 417 kts
2026-05-01 12:15 44.36649 15.10098 36313 ft 414 kts
2026-05-01 12:16 44.42380 15.09629 36315 ft 411 kts
2026-05-01 12:16 44.48067 15.09164 36303 ft 408 kts
2026-05-01 12:17 44.53695 15.08702 36307 ft 403 kts
2026-05-01 12:17 44.59269 15.08244 36320 ft 399 kts
2026-05-01 12:18 44.64765 15.07793 36318 ft 397 kts
2026-05-01 12:18 44.70280 15.07339 36323 ft 397 kts
2026-05-01 12:19 44.75809 15.06885 36321 ft 398 kts
2026-05-01 12:19 44.81348 15.06427 36337 ft 400 kts
2026-05-01 12:20 44.86914 15.05966 36336 ft 402 kts
2026-05-01 12:20 44.92477 15.05505 36340 ft 404 kts
2026-05-01 12:21 44.98103 15.05037 36339 ft 406 kts
2026-05-01 12:21 45.03737 15.04563 36343 ft 405 kts
2026-05-01 12:22 45.08409 15.04173 36337 ft 405 kts
2026-05-01 12:22 45.14981 15.03624 36337 ft 404 kts
2026-05-01 12:23 45.20586 15.03154 36334 ft 403 kts
2026-05-01 12:23 45.26147 15.02687 36342 ft 402 kts
2026-05-01 12:24 45.31724 15.02217 36329 ft 400 kts
2026-05-01 12:24 45.37277 15.01749 36345 ft 400 kts
2026-05-01 12:25 45.45608 15.01045 36345 ft 399 kts
2026-05-01 12:26 45.51151 15.00433 36344 ft 402 kts 358°
2026-05-01 12:26 45.59424 14.98596 36342 ft 403 kts 356°
2026-05-01 12:27 45.67720 14.96683 36354 ft 403 kts 356°
2026-05-01 12:28 45.76041 14.94814 36352 ft 404 kts 356°
2026-05-01 12:29 45.83442 14.93158 36350 ft 405 kts 356°
2026-05-01 12:29 45.91796 14.91283 36340 ft 405 kts 356°
2026-05-01 12:30 46.00147 14.89404 36346 ft 405 kts 356°
2026-05-01 12:31 46.05672 14.88157 36334 ft 404 kts 356°
2026-05-01 12:31 46.11225 14.86900 36338 ft 404 kts 356°
2026-05-01 12:32 46.16780 14.85642 36335 ft 404 kts 356°
2026-05-01 12:32 46.25129 14.83746 36345 ft 405 kts 356°
2026-05-01 12:33 46.30711 14.82475 36333 ft 407 kts 356°
2026-05-01 12:33 46.36257 14.81209 36335 ft 406 kts 356°
2026-05-01 12:34 46.41834 14.79932 36336 ft 405 kts 356°
2026-05-01 12:34 46.47404 14.78656 36337 ft 405 kts 356°
2026-05-01 12:35 46.52971 14.77378 36352 ft 405 kts 356°
2026-05-01 12:35 46.58548 14.76095 36341 ft 406 kts 356°
2026-05-01 12:36 46.64118 14.74810 36345 ft 405 kts 356°
2026-05-01 12:36 46.69682 14.73524 36357 ft 405 kts 355°
2026-05-01 12:37 46.75217 14.72243 36352 ft 405 kts 355°
2026-05-01 12:37 46.80789 14.70950 36355 ft 406 kts 355°
2026-05-01 12:38 46.86373 14.69652 36364 ft 407 kts 355°
2026-05-01 12:38 46.91975 14.68347 36338 ft 408 kts 355°
2026-05-01 12:39 46.97587 14.67037 36354 ft 409 kts 355°
2026-05-01 12:39 47.03208 14.65721 36357 ft 409 kts 355°
2026-05-01 12:40 47.08782 14.64413 36337 ft 409 kts 355°
2026-05-01 12:40 47.14402 14.63093 36333 ft 409 kts 355°
2026-05-01 12:41 47.20029 14.61767 36345 ft 410 kts 355°
2026-05-01 12:41 47.25649 14.60440 36352 ft 408 kts 355°
2026-05-01 12:42 47.31251 14.59115 36335 ft 407 kts 355°
2026-05-01 12:42 47.36797 14.57800 36340 ft 406 kts 355°
2026-05-01 12:43 47.42369 14.56477 36335 ft 405 kts 355°
2026-05-01 12:43 47.47936 14.55152 36357 ft 406 kts 355°
2026-05-01 12:44 47.53522 14.53820 36360 ft 407 kts 355°
2026-05-01 12:45 47.64760 14.51131 36370 ft 410 kts 355°
2026-05-01 12:45 47.70369 14.49784 36366 ft 412 kts 355°
2026-05-01 12:46 47.76033 14.48420 36369 ft 412 kts 355°
2026-05-01 12:46 47.81704 14.47053 36376 ft 412 kts 355°
2026-05-01 12:47 47.87350 14.45689 36357 ft 411 kts 354°
2026-05-01 12:47 47.92983 14.44335 36365 ft 409 kts 355°
2026-05-01 12:48 47.98606 14.43075 36373 ft 409 kts 355°
2026-05-01 12:48 48.04231 14.41832 36372 ft 409 kts 355°
2026-05-01 12:49 48.09848 14.40579 36063 ft 414 kts 355°
2026-05-01 12:49 48.12681 14.39943 35813 ft 410 kts 355°
2026-05-01 12:49 48.15490 14.39308 35559 ft 405 kts 355°
2026-05-01 12:50 48.18257 14.38681 35304 ft 400 kts 355°
2026-05-01 12:50 48.20999 14.38061 35057 ft 397 kts 355°
2026-05-01 12:50 48.23728 14.37444 34818 ft 396 kts 355°
2026-05-01 12:50 48.26443 14.36831 34580 ft 394 kts 355°
2026-05-01 12:51 48.29147 14.36219 34327 ft 393 kts 355°
2026-05-01 12:51 48.31846 14.35608 34046 ft 391 kts 355°
2026-05-01 12:51 48.37212 14.34390 33519 ft 389 kts 355°
2026-05-01 12:52 48.39873 14.33784 33156 ft 384 kts 355°
2026-05-01 12:52 48.45069 14.32599 32411 ft 376 kts 355°
2026-05-01 12:52 48.47649 14.32011 32014 ft 374 kts 355°
2026-05-01 12:53 48.52752 14.30846 31245 ft 368 kts 355°
2026-05-01 12:53 48.55276 14.30642 30857 ft 361 kts
2026-05-01 12:53 48.57754 14.31098 30500 ft 357 kts 13°
2026-05-01 12:54 48.60128 14.32080 30055 ft 352 kts 22°
2026-05-01 12:54 48.64578 14.34974 29299 ft 344 kts 25°
2026-05-01 12:54 48.66756 14.36441 28890 ft 341 kts 25°
2026-05-01 12:55 48.71052 14.39329 28152 ft 335 kts 25°
2026-05-01 12:55 48.73174 14.40748 27781 ft 332 kts 25°
2026-05-01 12:55 48.75278 14.42151 27397 ft 329 kts 25°
2026-05-01 12:56 48.77340 14.43525 27052 ft 327 kts 25°
2026-05-01 12:56 48.79414 14.44907 26675 ft 325 kts 25°
2026-05-01 12:56 48.81477 14.46281 26316 ft 323 kts 25°
2026-05-01 12:56 48.83526 14.47646 25968 ft 321 kts 25°
2026-05-01 12:57 48.85566 14.49006 25616 ft 319 kts 25°
2026-05-01 12:57 48.89610 14.51706 24912 ft 316 kts 25°
2026-05-01 12:57 48.91614 14.53045 24568 ft 314 kts 26°
2026-05-01 12:58 48.93608 14.54379 24222 ft 313 kts 26°
2026-05-01 12:58 48.95596 14.55710 23864 ft 311 kts 26°
2026-05-01 12:58 48.97574 14.57036 23452 ft 310 kts 26°
2026-05-01 12:59 49.01497 14.59667 22746 ft 305 kts 26°
2026-05-01 12:59 49.03433 14.60967 22396 ft 304 kts 26°
2026-05-01 12:59 49.07249 14.63534 21712 ft 300 kts 26°
2026-05-01 13:00 49.11047 14.66094 21049 ft 298 kts 26°
2026-05-01 13:00 49.12948 14.67376 20718 ft 299 kts 26°
2026-05-01 13:01 49.16842 14.70010 20040 ft 313 kts 26°
2026-05-01 13:01 49.18831 14.71355 19690 ft 312 kts 26°
2026-05-01 13:01 49.22792 14.74036 18985 ft 310 kts 26°
2026-05-01 13:02 49.24760 14.75370 18624 ft 309 kts 26°
2026-05-01 13:07 49.63685 15.02014 11513 ft 279 kts 26°
2026-05-01 13:07 49.65455 15.03235 11187 ft 278 kts 26°
2026-05-01 13:07 49.67198 15.04428 10876 ft 278 kts 23°
2026-05-01 13:08 49.69096 15.04911 10671 ft 278 kts 359°
2026-05-01 13:08 49.70957 15.04177 10554 ft 278 kts 339°
2026-05-01 13:08 49.72536 15.02471 10425 ft 280 kts 317°
2026-05-01 13:08 49.73771 15.00154 10190 ft 281 kts 312°
2026-05-01 13:09 49.74957 14.97748 9905 ft 281 kts 311°
2026-05-01 13:09 49.76140 14.95330 9592 ft 282 kts 311°
2026-05-01 13:09 49.77331 14.92922 9301 ft 281 kts 311°
2026-05-01 13:09 49.78520 14.90535 9023 ft 279 kts 311°
2026-05-01 13:10 49.79709 14.88151 8745 ft 280 kts 311°
2026-05-01 13:10 49.80896 14.85755 8449 ft 281 kts 310°
2026-05-01 13:10 49.82083 14.83341 8162 ft 282 kts 310°
2026-05-01 13:10 49.83270 14.80925 7870 ft 282 kts 310°
2026-05-01 13:11 49.84441 14.78551 7588 ft 281 kts 310°
2026-05-01 13:11 49.85634 14.76154 7312 ft 280 kts 310°
2026-05-01 13:11 49.86801 14.73771 6997 ft 274 kts 310°
2026-05-01 13:11 49.87942 14.71445 6733 ft 268 kts 309°
2026-05-01 13:12 49.89058 14.69179 6505 ft 260 kts 310°
2026-05-01 13:12 49.90133 14.66991 6393 ft 250 kts 309°
2026-05-01 13:12 49.91167 14.64873 6056 ft 247 kts 309°
2026-05-01 13:12 49.92193 14.62782 5865 ft 241 kts 309°
2026-05-01 13:13 49.93192 14.60753 5739 ft 232 kts 309°
2026-05-01 13:13 49.94162 14.58787 5582 ft 228 kts 309°
2026-05-01 13:13 49.95111 14.56835 5357 ft 225 kts 308°
2026-05-01 13:13 49.96053 14.54954 5160 ft 216 kts 310°
2026-05-01 13:14 49.96975 14.53173 4907 ft 212 kts 310°
2026-05-01 13:14 49.97862 14.51386 4644 ft 207 kts 309°
2026-05-01 13:14 49.98714 14.49628 4454 ft 201 kts 309°
2026-05-01 13:14 49.99531 14.47923 4359 ft 190 kts 308°
2026-05-01 13:15 50.00301 14.46316 4153 ft 181 kts 308°
2026-05-01 13:15 50.01052 14.44757 3919 ft 181 kts 308°
2026-05-01 13:15 50.01785 14.43201 3678 ft 176 kts 308°
2026-05-01 13:15 50.02509 14.41717 3533 ft 164 kts 309°
2026-05-01 13:16 50.03201 14.40264 3280 ft 165 kts 307°
2026-05-01 13:16 50.03922 14.38775 2973 ft 173 kts 308°
2026-05-01 13:16 50.04640 14.37326 2738 ft 168 kts 308°
2026-05-01 13:17 50.06721 14.33046 2099 ft 163 kts 308°
2026-05-01 13:17 50.07386 14.31633 1808 ft 159 kts 307°
2026-05-01 13:18 50.08705 14.28891 1421 ft 160 kts 306°
2026-05-01 13:18 50.09336 14.27547 1222 ft 144 kts 309°
2026-05-01 13:18 50.09878 14.26448 1201 ft 108 kts 306°
2026-05-01 13:18 50.10195 14.25789 1186 ft 32 kts 312°
2026-05-01 13:19 50.10318 14.25675 1185 ft 19 kts 342°
2026-05-01 13:19 50.10428 14.25664 1182 ft 16 kts
2026-05-01 13:19 50.10503 14.25896 1171 ft 14 kts 79°
2026-05-01 13:20 50.10522 14.26043 1172 ft 14 kts 78°
2026-05-01 13:20 50.10536 14.26186 1173 ft 13 kts 89°
2026-05-01 13:20 50.10508 14.26306 1171 ft 12 kts 123°
2026-05-01 13:21 50.10455 14.26427 1171 ft 3 kts 124°
2026-05-01 13:21 50.10452 14.26440 1169 ft 0 kts 90°
2026-05-01 13:21 50.10458 14.26452 1170 ft 3 kts 46°
2026-05-01 13:21 50.10478 14.26473 1172 ft 2 kts 34°
2026-05-01 13:22 50.10480 14.26475 1172 ft 0 kts 34°
2026-05-01 13:22 50.10482 14.26477 1172 ft 0 kts 34°